Weather reports worldwide

Advertisment
Salon, France (7648): temperature & dewpoint: 01.08.2020 03:00:00 - 07.08.2020 03:00:00 (CEST)Salon, France (7648): temperature 5cm: 01.08.2020 03:00:00 - 07.08.2020 03:00:00 (CEST)Salon, France (7648): wind speed & gusts: 01.08.2020 03:00:00 - 07.08.2020 03:00:00 (CEST)Salon, France (7648): wind direction: 01.08.2020 03:00:00 - 07.08.2020 03:00:00 (CEST)Salon, France (7648): reduced air pressure: 01.08.2020 03:00:00 - 07.08.2020 03:00:00 (CEST)Salon, France (7648): visibility: 01.08.2020 03:00:00 - 07.08.2020 03:00:00 (CEST)Salon, France (7648): precipitation: 01.08.2020 03:00:00 - 07.08.2020 03:00:00 (CEST)
Date & Time tt [°C] td [°C] tt 5cm [°C] ff [km/h] ff [kn] fx [km/h] fx [kn] dd ppp [hPa] vv [km] rr [mm]
07.08.2020 03:00:00 - - - - - - - - - - -
07.08.2020 02:00:00 16,5 12,8 14,2 0 0 9 5 N 1018,5 48 0,0
07.08.2020 01:00:00 16,6 12,9 15,0 6 3 8 4 ENE 1018,5 47 0,0
07.08.2020 00:00:00 18,8 14,3 15,9 2 1 4 2 ESE 1018,2 30 0,0
06.08.2020 23:00:00 21,2 14,4 19,0 0 0 7 4 N 1017,7 27 0,0
06.08.2020 22:00:00 22,5 14,9 20,7 3 1 10 5 WSW 1017,2 47 0,0
06.08.2020 21:00:00 25,4 15,4 24,1 5 3 15 8 SSW 1016,2 60 0,0
06.08.2020 20:00:00 27,5 13,4 30,0 7 4 22 12 S 1015,6 59 0,0
06.08.2020 19:00:00 28,9 12,7 33,6 15 8 24 13 S 1015,4 43 0,0
06.08.2020 18:00:00 29,8 11,8 35,5 16 9 27 14 S 1015,2 38 0,0
06.08.2020 17:00:00 31,1 11,0 37,3 15 8 23 12 SSW 1015,1 39 0,0
06.08.2020 16:00:00 30,9 11,8 38,1 14 8 28 15 SW 1015,1 43 0,0
06.08.2020 15:00:00 31,1 12,0 38,8 15 8 28 15 SSW 1015,3 47 0,0
06.08.2020 14:00:00 30,7 10,1 39,0 14 8 22 12 SSW 1015,4 51 0,0
06.08.2020 13:00:00 30,7 11,6 37,0 10 5 16 9 SSW 1015,5 54 0,0
06.08.2020 12:00:00 29,0 12,0 34,0 5 3 12 7 NW 1015,6 56 0,0
06.08.2020 11:00:00 27,3 12,5 31,5 6 4 13 7 WNW 1015,7 56 0,0
06.08.2020 10:00:00 24,2 13,1 28,1 5 3 10 6 WNW 1015,9 56 0,0
06.08.2020 09:00:00 20,6 11,2 21,6 5 3 8 5 N 1015,9 53 0,0
06.08.2020 08:00:00 17,5 10,6 12,7 3 1 6 4 NNE 1015,9 60 0,0
06.08.2020 07:00:00 13,0 9,4 10,6 4 2 6 3 NNE 1015,6 60 0,0
06.08.2020 06:00:00 13,0 9,6 10,5 0 0 8 4 N 1015,4 60 0,0
06.08.2020 05:00:00 13,9 9,9 11,2 4 2 8 4 NNE 1015,4 60 0,0
06.08.2020 04:00:00 14,1 10,1 11,8 6 3 9 5 NNE 1015,4 60 0,0
06.08.2020 03:00:00 14,4 10,0 11,9 4 2 6 3 ENE 1015,5 60 0,0
06.08.2020 02:00:00 15,4 10,2 12,5 6 4 9 5 NNE 1015,4 60 0,0
06.08.2020 01:00:00 16,3 10,4 13,4 3 1 6 4 E 1015,4 60 0,0
06.08.2020 00:00:00 17,1 11,4 13,6 2 1 6 3 NNE 1015,2 60 0,0
05.08.2020 23:00:00 18,9 11,5 15,5 4 2 5 3 SSW 1014,9 60 0,0
05.08.2020 22:00:00 22,2 10,3 20,2 3 2 8 4 SW 1014,6 59 0,0
05.08.2020 21:00:00 24,8 10,3 23,3 5 3 13 7 SW 1013,6 60 0,0
05.08.2020 20:00:00 27,4 11,0 30,3 9 5 21 12 SW 1012,8 58 0,0
05.08.2020 19:00:00 28,1 9,4 32,9 13 7 26 14 SW 1012,3 44 0,0
05.08.2020 18:00:00 28,9 9,1 34,1 16 8 27 15 SW 1012,6 35 0,0
05.08.2020 17:00:00 29,5 9,1 35,7 17 9 31 17 SSW 1012,6 40 0,0
05.08.2020 16:00:00 29,8 8,8 36,8 17 9 30 16 SSW 1012,5 38 0,0
05.08.2020 15:00:00 29,9 8,9 37,2 18 10 31 17 SSW 1012,5 41 0,0
05.08.2020 14:00:00 29,8 9,8 36,9 16 9 25 13 SW 1012,8 60 0,0
05.08.2020 13:00:00 28,9 9,6 34,1 6 3 16 8 SW 1012,8 60 0,0
05.08.2020 12:00:00 27,2 9,5 29,6 10 6 26 14 NNW 1012,8 57 0,0
05.08.2020 11:00:00 24,9 9,6 27,3 18 10 31 17 NNW 1012,7 10 0,0
05.08.2020 10:00:00 22,8 9,6 25,6 18 10 26 14 NNW 1012,8 60 0,0
05.08.2020 09:00:00 21,1 9,7 23,6 7 4 14 8 NNE 1012,5 60 0,0
05.08.2020 08:00:00 19,2 10,2 15,0 4 2 6 3 NE 1012,1 60 0,0
05.08.2020 07:00:00 15,6 8,3 12,4 0 0 7 4 N 1011,9 60 0,0
05.08.2020 06:00:00 16,4 8,4 14,1 5 3 15 8 E 1011,6 60 0,0
05.08.2020 05:00:00 18,3 8,3 15,0 3 2 21 12 ESE 1011,3 60 0,0
05.08.2020 04:00:00 19,7 8,4 17,3 13 7 35 19 N 1010,8 60 0,0
05.08.2020 03:00:00 20,5 8,8 19,7 19 10 38 21 NNW 1010,7 60 0,0
05.08.2020 02:00:00 21,2 9,1 20,5 26 14 42 23 NNW 1010,8 60 0,0
05.08.2020 01:00:00 21,8 9,0 21,2 26 14 50 27 NNW 1010,5 60 0,0
05.08.2020 00:00:00 22,5 8,9 21,8 29 16 53 28 NNW 1010,4 60 0,0
04.08.2020 23:00:00 23,1 9,1 22,5 30 16 52 28 NW 1010,4 60 0,0
04.08.2020 22:00:00 23,9 8,7 23,0 37 20 75 40 NNW 1010,3 60 0,0
04.08.2020 21:00:00 24,3 8,7 23,7 43 23 69 37 NNW 1009,2 60 0,0
04.08.2020 20:00:00 25,1 9,0 26,4 44 24 81 44 NNW 1009,2 14 0,0
04.08.2020 19:00:00 25,7 8,7 27,9 51 28 92 50 NNW 1008,9 9 0,0
04.08.2020 18:00:00 26,2 9,1 28,5 59 32 87 47 NNW 1008,5 4,5 0,0
04.08.2020 17:00:00 26,3 8,7 29,0 51 28 88 47 NNW 1008,5 2,4 0,0
04.08.2020 16:00:00 26,0 8,9 29,1 56 30 84 45 NNW 1009,0 3,1 0,0
04.08.2020 15:00:00 25,9 8,8 28,2 46 25 84 46 NNW 1009,5 6 0,0
04.08.2020 14:00:00 24,8 8,7 27,8 50 27 81 44 NNW 1010,0 9 0,0
04.08.2020 13:00:00 24,0 8,4 26,9 50 27 82 44 NW 1009,7 9 0,0
04.08.2020 12:00:00 23,7 9,3 25,4 37 20 80 43 NNW 1010,8 11 0,0
04.08.2020 11:00:00 22,6 8,7 23,8 48 26 84 46 NNW 1010,7 15 0,0
04.08.2020 10:00:00 21,4 9,0 22,6 43 23 67 36 NNW 1011,1 18 0,0
04.08.2020 09:00:00 20,1 9,0 20,4 37 20 69 38 NW 1010,6 23 0,0
04.08.2020 08:00:00 19,0 8,9 18,2 44 24 64 35 NNW 1011,0 30 0,0
04.08.2020 07:00:00 18,2 9,0 17,5 37 20 61 33 NW 1011,2 29 0,0
04.08.2020 06:00:00 18,1 8,9 17,5 28 15 55 30 NW 1011,2 60 0,0
04.08.2020 05:00:00 18,3 8,8 17,7 30 16 54 29 NNW 1011,2 60 0,0
04.08.2020 04:00:00 18,6 9,4 18,0 31 17 58 32 NW 1011,5 60 0,0
04.08.2020 03:00:00 19,0 9,7 18,4 34 19 52 28 NNW 1011,7 60 0,0
04.08.2020 02:00:00 19,3 9,5 18,8 27 14 52 28 NW 1011,8 60 0,0
04.08.2020 01:00:00 19,8 9,1 19,2 27 14 52 28 NW 1011,7 60 0,0
04.08.2020 00:00:00 20,5 8,5 19,7 30 16 61 33 NNW 1011,8 60 0,0
03.08.2020 23:00:00 21,0 8,6 20,4 25 14 55 30 NW 1011,4 60 0,0
03.08.2020 22:00:00 21,9 8,0 21,4 35 19 64 35 NNW 1010,7 60 0,0
03.08.2020 21:00:00 23,0 9,0 22,5 30 16 63 34 NNW 1009,7 60 0,0
03.08.2020 20:00:00 24,6 9,3 25,8 41 22 66 35 NNW 1009,0 17 0,0
03.08.2020 19:00:00 26,2 8,7 27,3 36 19 66 35 NNW 1008,3 11 0,0
03.08.2020 18:00:00 27,7 8,5 27,9 41 22 65 35 NNW 1008,0 11 0,0
03.08.2020 17:00:00 28,3 9,6 30,7 37 20 71 38 NNW 1007,9 12 0,0
03.08.2020 16:00:00 28,6 8,8 29,8 36 19 61 33 NNW 1007,9 11 0,0
03.08.2020 15:00:00 28,5 9,2 31,1 35 19 61 33 NW 1008,5 13 0,0
03.08.2020 14:00:00 28,4 10,1 31,8 35 19 61 33 NNW 1009,0 17 0,0
03.08.2020 13:00:00 27,7 11,3 31,0 35 19 56 30 NNW 1009,4 25 0,0
03.08.2020 12:00:00 26,3 12,4 28,5 29 16 56 31 NW 1009,6 38 0,0
03.08.2020 11:00:00 24,6 13,2 24,7 21 11 43 23 NW 1010,1 53 0,0
03.08.2020 10:00:00 23,2 13,1 23,8 22 12 46 25 NW 1010,1 60 0,0
03.08.2020 09:00:00 22,6 13,1 22,5 23 13 40 22 NW 1010,4 60 0,0
03.08.2020 08:00:00 22,3 13,1 22,1 22 12 42 23 WNW 1010,4 60 0,0
03.08.2020 07:00:00 22,4 13,7 22,1 18 10 42 23 WNW 1010,3 60 0,0
03.08.2020 06:00:00 22,7 13,7 22,4 19 11 45 24 WNW 1009,8 60 0,0
03.08.2020 05:00:00 23,2 14,2 22,8 26 14 50 27 NW 1009,8 60 0,0
03.08.2020 04:00:00 23,5 14,8 23,0 18 10 43 23 WNW 1010,0 60 0,0
03.08.2020 03:00:00 23,5 15,0 23,0 16 9 41 22 WNW 1010,3 60 0,0
03.08.2020 02:00:00 23,8 15,6 23,2 16 9 36 20 WNW 1010,6 60 0,0
03.08.2020 01:00:00 24,3 15,8 23,6 19 10 41 22 NW 1010,4 60 0,0
03.08.2020 00:00:00 24,9 15,2 24,3 26 14 42 23 NW 1010,5 60 0,0
02.08.2020 23:00:00 25,4 15,4 24,8 18 10 41 22 NW 1010,1 60 0,0
02.08.2020 22:00:00 26,7 14,5 26,3 22 12 40 22 NW 1009,6 60 0,0
02.08.2020 21:00:00 27,2 15,2 26,9 31 17 48 26 NNW 1009,3 60 0,0
02.08.2020 20:00:00 28,4 15,0 28,4 31 17 54 29 NNW 1009,7 39 0,0
02.08.2020 19:00:00 29,3 16,8 29,6 22 12 51 27 NW 1009,2 43 0,0
02.08.2020 18:00:00 31,1 16,3 32,2 35 19 51 27 NNW 1009,6 27 0,0
02.08.2020 17:00:00 31,9 16,6 36,3 26 14 53 29 NW 1009,7 16 0,0
02.08.2020 16:00:00 32,6 17,2 36,7 29 16 48 26 NNW 1010,1 17 0,0
02.08.2020 15:00:00 31,9 17,4 36,6 29 16 50 27 NW 1010,8 21 0,0
02.08.2020 14:00:00 31,6 18,2 36,0 24 13 44 24 NW 1011,1 28 0,0
02.08.2020 13:00:00 30,8 17,8 34,9 25 14 42 23 NW 1011,5 33 0,0
02.08.2020 12:00:00 30,0 17,5 33,3 29 16 47 25 NW 1011,6 40 0,0
02.08.2020 11:00:00 29,2 17,4 32,4 24 13 43 23 NW 1011,7 50 0,0
02.08.2020 10:00:00 27,5 17,4 29,4 18 10 34 18 NW 1011,7 60 0,0
02.08.2020 09:00:00 26,0 16,8 26,8 22 12 36 19 NW 1011,9 60 0,0
02.08.2020 08:00:00 24,6 16,6 23,5 14 8 27 15 NW 1012,2 50 0,0
02.08.2020 07:00:00 23,6 16,1 22,3 8 4 21 11 NW 1011,7 58 0,0
02.08.2020 06:00:00 23,7 16,0 22,6 10 6 23 13 NNW 1011,3 60 0,0
02.08.2020 05:00:00 23,5 15,5 20,7 7 4 18 10 NNW 1011,2 60 0,0
02.08.2020 04:00:00 23,2 15,0 20,4 7 4 20 11 NW 1011,4 60 0,0
02.08.2020 03:00:00 23,1 15,9 20,4 5 3 17 9 WNW 1011,7 44 0,0
02.08.2020 02:00:00 23,2 16,5 22,1 5 3 12 7 SW 1012,4 55 0,0
02.08.2020 01:00:00 23,3 17,1 22,4 4 2 16 9 SW 1012,3 53 0,0
02.08.2020 00:00:00 24,7 16,4 24,1 11 6 19 10 WSW 1012,0 57 0,0
01.08.2020 23:00:00 26,3 14,7 24,2 8 5 19 10 WNW 1011,6 59 0,0
01.08.2020 22:00:00 29,4 12,3 27,7 5 3 45 24 ENE 1011,7 60 0,0
01.08.2020 21:00:00 29,2 13,4 27,6 34 18 61 33 N 1012,5 60 0,0
01.08.2020 20:00:00 30,1 16,1 30,0 44 24 70 38 NNW 1013,0 30 0,0
01.08.2020 19:00:00 34,7 19,1 37,9 22 12 36 19 WSW 1010,5 32 0,0
01.08.2020 18:00:00 36,8 18,8 40,9 16 8 34 18 WSW 1010,2 35 0,0
01.08.2020 17:00:00 37,5 22,4 44,0 15 8 31 17 SSW 1010,2 55 0,0
01.08.2020 16:00:00 39,3 15,0 45,9 9 5 22 12 NW 1010,6 49 0,0
01.08.2020 15:00:00 38,2 14,7 44,0 11 6 23 13 WNW 1011,4 51 0,0
01.08.2020 14:00:00 37,2 15,6 42,6 13 7 23 12 WNW 1012,0 49 0,0
01.08.2020 13:00:00 35,7 14,9 40,4 13 7 25 14 NW 1012,8 53 0,0
01.08.2020 12:00:00 33,0 16,4 37,3 11 6 20 11 NW 1013,4 54 0,0
01.08.2020 11:00:00 31,3 16,5 35,8 8 5 13 7 NW 1013,7 59 0,0
01.08.2020 10:00:00 29,0 14,4 32,2 2 1 8 4 S 1014,1 54 0,0
01.08.2020 09:00:00 25,0 13,5 25,3 3 1 6 3 E 1014,5 48 0,0
01.08.2020 08:00:00 20,5 13,2 17,0 3 1 5 3 NNE 1014,8 57 0,0
01.08.2020 07:00:00 17,7 12,8 15,4 2 1 5 3 NE 1014,8 59 0,0
01.08.2020 06:00:00 17,5 12,6 15,4 0 0 5 3 N 1014,6 48 0,0
01.08.2020 05:00:00 18,3 12,9 15,8 0 0 6 3 N 1014,5 59 0,0
01.08.2020 04:00:00 20,0 13,0 17,1 0 0 8 4 N 1014,6 58 0,0
01.08.2020 03:00:00 20,1 12,6 17,1 4 2 10 5 NNE 1014,7 60 0,0

tt = temperature
td = dewpoint
tt 5cm = temperature 5cm
ff = wind speed
fx = gusts
dd = wind direction
ppp = reduced air pressure
vv = visibility
rr = precipitation

Next stations